DW7144 Weather Reports


Display with metric or nautical units.
time (UTC)temp
F
wind
direction
speed
MPH
gust
MPH
rain 1hr
in
rain 24hr
in
rain mn
in
humidity
%
barometer
mb
20260507183603 56 101 6.0 10.0 0.00 0.00 0.00 66 1012.4
20260507182703 57 109 5.0 11.0 0.00 0.00 0.00 65 1012.4
20260507181803 57 107 5.0 13.0 0.00 0.00 0.00 65 1012.4
20260507180903 57 112 6.0 13.0 0.00 0.00 0.00 63 1012.3
20260507180003 57 99 5.0 10.0 0.00 0.00 0.00 62 1012.2
20260507175403 58 96 6.0 10.0 0.00 0.00 0.00 60 1012.1
20260507174503 58 104 5.0 10.0 0.00 0.00 0.00 58 1012.0
20260507173603 58 97 5.0 11.0 0.00 0.00 0.00 58 1012.1
20260507172703 59 132 5.0 10.0 0.00 0.00 0.00 57 1012.0
20260507171803 59 119 4.0 10.0 0.00 0.00 0.00 55 1012.1
20260507170903 58 125 4.0 9.0 0.00 0.00 0.00 56 1012.1
20260507170003 58 124 4.0 8.0 0.00 0.00 0.00 56 1012.2
20260507165403 58 139 4.0 8.0 0.00 0.00 0.00 54 1012.2
20260507164503 58 123 3.0 8.0 0.00 0.00 0.00 56 1012.2
20260507163624 58 99 4.0 9.0 0.00 0.00 0.00 56 1012.2
20260507162724 59 127 3.0 9.0 0.00 0.00 0.00 53 1012.2
20260507161824 58 106 4.0 9.0 0.00 0.00 0.00 53 1012.2
20260507160924 59 105 4.0 10.0 0.00 0.00 0.00 53 1012.2
20260507160024 59 121 4.0 8.0 0.00 0.00 0.00 54 1012.2
20260507155403 60 96 5.0 10.0 0.00 0.00 0.00 52 1012.2
20260507154503 60 112 3.0 8.0 0.00 0.00 0.00 53 1012.2
20260507153603 58 116 5.0 10.0 0.00 0.00 0.00 55 1012.2
20260507152703 58 100 4.0 10.0 0.00 0.00 0.00 56 1012.3
20260507151803 58 94 5.0 11.0 0.00 0.00 0.00 53 1012.5
20260507150924 58 86 5.0 11.0 0.00 0.00 0.00 56 1012.5
20260507150003 58 100 5.0 12.0 0.00 0.00 0.00 55 1012.5
20260507145403 58 97 7.0 12.0 0.00 0.00 0.00 57 1012.6
20260507144503 58 106 6.0 13.0 0.00 0.00 0.00 58 1012.6
20260507143603 58 94 6.0 13.0 0.00 0.00 0.00 56 1012.6
20260507142703 58 94 6.0 12.0 0.00 0.00 0.00 57 1012.6
20260507141803 59 95 3.0 8.0 0.00 0.00 0.00 55 1012.8
20260507140903 57 100 5.0 13.0 0.00 0.00 0.00 58 1012.8
20260507140003 57 136 4.0 12.0 0.00 0.00 0.00 58 1012.9
20260507135424 58 149 4.0 9.0 0.00 0.00 0.00 55 1012.9
20260507134503 58 115 4.0 9.0 0.00 0.00 0.00 58 1012.9
20260507133603 58 124 4.0 10.0 0.00 0.00 0.00 54 1013.0
20260507132703 60 127 4.0 9.0 0.00 0.00 0.00 53 1013.1
20260507131803 59 150 5.0 10.0 0.00 0.00 0.00 55 1013.1
20260507130903 59 119 4.0 10.0 0.00 0.00 0.00 57 1013.1
20260507130003 58 112 5.0 10.0 0.00 0.00 0.00 59 1013.1
20260507125403 58 123 5.0 10.0 0.00 0.00 0.00 57 1013.2
20260507124524 57 108 5.0 10.0 0.00 0.00 0.00 59 1013.1
20260507123624 58 110 4.0 10.0 0.00 0.00 0.00 56 1013.2
20260507122705 57 107 5.0 11.0 0.00 0.00 0.00 58 1013.2
20260507121803 57 99 4.0 10.0 0.00 0.00 0.00 57 1013.2
20260507120903 56 108 6.0 12.0 0.00 0.00 0.00 57 1013.3
20260507120024 56 111 7.0 13.0 0.00 0.00 0.00 56 1013.3
20260507115403 56 127 5.0 13.0 0.00 0.00 0.00 58 1013.4
20260507114503 56 109 6.0 14.0 0.00 0.00 0.00 60 1013.4
20260507113603 56 115 7.0 12.0 0.00 0.00 0.00 61 1013.4
20260507112703 56 130 7.0 13.0 0.00 0.00 0.00 61 1013.6
20260507111803 58 131 5.0 13.0 0.00 0.00 0.00 56 1013.5
20260507110903 57 133 5.0 12.0 0.00 0.00 0.00 56 1013.5
20260507110003 57 135 4.0 12.0 0.00 0.00 0.00 59 1013.5
20260507105403 57 153 4.0 12.0 0.00 0.00 0.00 56 1013.5
20260507104503 56 124 3.0 7.0 0.00 0.00 0.00 62 1013.5
20260507103603 55 107 5.0 11.0 0.00 0.00 0.00 58 1013.5
20260507102703 57 141 3.0 9.0 0.00 0.00 0.00 57 1013.6
20260507101824 56 161 3.0 10.0 0.00 0.00 0.00 57 1013.6
20260507100903 58 144 3.0 8.0 0.00 0.00 0.00 57 1013.6
20260507100024 55 129 4.0 10.0 0.00 0.00 0.00 64 1013.6
20260507095403 54 120 5.0 11.0 0.00 0.00 0.00 63 1013.7
20260507094503 55 123 5.0 11.0 0.00 0.00 0.00 59 1013.8
20260507093603 55 133 4.0 12.0 0.00 0.00 0.00 65 1013.6
20260507092703 55 126 4.0 8.0 0.00 0.00 0.00 64 1013.6
20260507091803 55 180 3.0 8.0 0.00 0.00 0.00 69 1013.7
20260507090903 55 184 3.0 7.0 0.00 0.00 0.00 68 1013.7
20260507090004 55 194 3.0 6.0 0.00 0.00 0.00 67 1013.8
20260507085403 55 191 2.0 8.0 0.00 0.00 0.00 68 1013.7
20260507084503 54 155 3.0 9.0 0.00 0.00 0.00 71 1013.8
20260507083603 54 117 2.0 6.0 0.00 0.00 0.00 74 1013.7
20260507082703 53 117 2.0 6.0 0.00 0.00 0.00 77 1013.7
20260507081824 52 116 1.0 4.0 0.00 0.00 0.00 81 1013.7
20260507080903 50 115 2.0 4.0 0.00 0.00 0.00 84 1013.8
20260507080024 49 115 3.0 7.0 0.00 0.00 0.00 84 1013.8
20260507075403 50 113 3.0 8.0 0.00 0.00 0.00 84 1013.7
20260507074503 50 111 2.0 7.0 0.00 0.00 0.00 87 1013.7
20260507073603 49 112 3.0 8.0 0.00 0.00 0.00 88 1013.7
20260507072703 49 111 3.0 6.0 0.00 0.00 0.00 90 1013.6
20260507071824 48 111 2.0 6.0 0.00 0.00 0.00 91 1013.6
20260507070903 47 111 2.0 6.0 0.00 0.00 0.00 91 1013.7
20260507070024 47 107 2.0 4.0 0.00 0.00 0.00 91 1013.6
20260507065424 47 89 3.0 8.0 0.00 0.00 0.00 92 1013.6
20260507064524 47 20 1.0 4.0 0.00 0.00 0.00 91 1013.6
20260507063603 46 20 2.0 4.0 0.00 0.00 0.00 92 1013.5
20260507062703 46 20 1.0 4.0 0.00 0.00 0.00 92 1013.5
20260507061803 46 20 1.0 4.0 0.00 0.00 0.00 92 1013.3
20260507060903 46 20 1.0 5.0 0.00 0.00 0.00 92 1013.3
20260507060003 46 19 1.0 4.0 0.00 0.00 0.00 92 1013.2
20260507055424 45 19 2.0 4.0 0.00 0.00 0.00 92 1013.1
20260507054503 45 19 1.0 4.0 0.00 0.00 0.00 92 1013.2
20260507053603 45 19 2.0 4.0 0.00 0.00 0.00 92 1013.1
20260507052724 45 19 1.0 3.0 0.00 0.00 0.00 92 1013.1
20260507051803 45 19 1.0 2.0 0.00 0.00 0.00 92 1013.1
20260507050903 45 19 1.0 3.0 0.00 0.00 0.00 92 1013.1
20260507050005 45 19 1.0 3.0 0.00 0.00 0.00 92 1013.1
20260507045403 45 0 0.0 2.0 0.00 0.00 0.00 92 1013.0
20260507044503 45 0 0.0 2.0 0.00 0.00 0.00 91 1013.0
20260507043603 45 0 0.0 2.0 0.00 0.00 0.00 91 1013.0
20260507042724 45 19 1.0 4.0 0.00 0.00 0.00 91 1012.9
20260507041803 45 19 1.0 4.0 0.00 0.00 0.00 91 1012.9
20260507040903 45 0 0.0 1.0 0.00 0.00 0.00 91 1013.0
20260507040003 45 0 0.0 2.0 0.00 0.00 0.00 91 1012.9
20260507035424 45 19 1.0 3.0 0.00 0.00 0.00 91 1012.9
20260507034524 45 0 0.0 0.0 0.00 0.00 0.00 91 1012.9
20260507033603 45 0 0.0 0.0 0.00 0.00 0.00 91 1012.9
20260507032703 45 0 0.0 0.0 0.00 0.00 0.00 91 1012.9
20260507031803 45 0 0.0 0.0 0.00 0.00 0.00 91 1013.0
20260507030903 45 0 0.0 2.0 0.00 0.00 0.00 91 1012.9
20260507030003 45 0 0.0 2.0 0.00 0.00 0.00 91 1012.9
20260507025403 45 0 0.0 2.0 0.00 0.00 0.00 91 1013.0
20260507024503 45 0 0.0 2.0 0.00 0.00 0.00 91 1012.9
20260507023603 45 0 0.0 3.0 0.00 0.00 0.00 91 1012.9
20260507022703 45 0 0.0 2.0 0.00 0.00 0.00 91 1012.9
20260507021803 45 19 2.0 4.0 0.00 0.00 0.00 91 1012.9
20260507020924 45 19 2.0 4.0 0.00 0.00 0.00 91 1012.8